Showing default

GALILEO 22 (2C8), 43058

Orbit data source: Space-Track

GALILEO 22 (2C8), 43058 is a payload satellite owned by GNSS Agency (ESA) that was launched on Tue, 12 Dec 2017 UTC via an ARIANE 5ES launch vehicle from the French Guiana (FRGUI). Payloads include a variety of satellites, spacecraft, and rockets equipped with specific instruments for various scientific and technological missions. These include communications satellites like Starlink; space stations such as the ISS; scientific satellites like the Hubble; Earth observation satellites from companies like Planet Labs, Umbra, and HawkEye 360; GPS; miniature CubeSats for education and research; and military/defense satellites.

Loading next visibility...
GALILEO 22 (2C8) details
Identifier
43058, 2017-079D
Orbit
Active
Last TLE update3 days ago
Origin
Flag of ESAGNSS Agency (ESA)
ManufacturerOHB
MissionOperational Civil Navigation
Bus & MotorGALILEOSAT, AOCS
Mass715 kg wet, 700 kg dry
Launch date (UTC)
2017-12-12 (7 years ago)
Launch vehicle
ARIANE 5ES
Launch site
French Guiana (FRGUI)
Object type
Payload
Rocket body
Debris
Shape & HBRBox + 2 Pan, 14.71 m
Radar Cross Section9.223 m², Large (>1 m²)

Expand to show TLE details & history

TLE from 3 days ago
0 GALILEO 22 (2C8)
1 43058U 17079D   24358.33240982  .00000027  00000-0  00000-0 0  9996
2 43058  55.2585 236.3878 0002678 308.4145  51.6422  1.70474098 43790
Epoch: 2024-12-23T07:58Z
Definitive object data (Epoch: 2024-12-23T07:58:40.208Z)
Latitude-0.00001°
Longitude24.37344°
Altitude23,217.514 km
Speed3.67 km/s
True Right ascension15h 45m 35s
True Declination0° 00' 00"
Sunlit
Object was in daylight at TLE epoch
Visualization TLE readout
Latitude6.74732°
Longitude-160.41284°
Altitude23,227.614 km
Speed3.669 km/s
Apparent Right ascension03h 02m 25s
Apparent Declination-1° 02' 08"
Sunlit
Object is in daylight
Visualization observer readout
Local Sidereal Time12:26:47
Azimuth307.703° NW
Elevation-37.47°
Doppler factor1
Orbital elements
Apogee altitude23,230.098 km
Perigee altitude23,214.244 km
Semi-major axis29,600.308 km
Eccentricity0.0002678
Inclination55.2585°
RAAN236.3878°
Arg. of periapsis308.4145°
True anomaly51.66627°
Mean anomaly51.6422°
Eccentric anomaly51.65423°
Mean motion0.42619 °/min
BSTARUnknown
Orbital period844.7 mins
Loading maneuver chart data...
Loading historical data...
Loading historical data...
Loading historical data...
Loading historical data...
Loading historical data...
Loading historical data...
Loading historical data...

GALILEO 22 (2C8) Visibility forecast

Observer location: undefined°, undefined

Span
Click to sort rows by Start time (UTC) header in descending order
Start Az.
Max El. time (UTC)
Max El. Az.
Max El.
End time (UTC)
End Az.
495 mins2024-12-26 20:30:10.460Z251.467° W2024-12-27 01:20:10.460Z61.224° ENE44.802°2024-12-27 04:45:10.460Z166.539° S
38 mins2024-12-27 12:27:10.460Z57.758° ENE2024-12-27 12:52:10.460Z49.473° ENE10.918°2024-12-27 13:05:10.460Z45.261° ENE
|